[Date Prev][Date Next][Thread Prev][Thread Next] - [Date Index][Thread Index][Author Index]

2 Line ISS Keps 10-6



ISS
1 25544U 98067A   01279.21034722  .00061450  00000-0  70815-3 0  5581
2 25544  51.6389 250.0814 0007749 167.3473  19.1774 15.61329829164402


----
Via the sarex mailing list at AMSAT.ORG courtesy of AMSAT-NA.
To unsubscribe, send "unsubscribe sarex" to Majordomo@amsat.org



AMSAT Top AMSAT Home